Duluth, MN

5:42 PM CDT on September 19, 2017 (GMT -0500)
Duluth International

Weather History for KDLH - September, 2013

Change the Weather History Date:

Wednesday, September 18, 2013

  Actual Average Record
Temperature  
Mean Temperature 62 °F 55 °F  
Max Temperature 65 °F 64 °F 84 °F (1984)
Min Temperature 58 °F 45 °F 29 °F (1929)
Degree Days  
Heating Degree Days 3 11  
Month to date heating degree days 94 138  
Since 1 July heating degree days 168 287  
Cooling Degree Days 0 0  
Month to date cooling degree days 22 13  
Year to date cooling degree days 373 203  
Growing Degree Days 10 (Base 50)    
Moisture  
Dew Point 58 °F    
Average Humidity 89    
Maximum Humidity 97    
Minimum Humidity 80    
Precipitation  
Precipitation 0.05 in 0.14 in 1.75 in (1905)
Month to date precipitation 0.63 2.52  
Year to date precipitation 22.22 23.22  
Snow  
Snow 0.00 in 0.00 in 2.40 in (1991)
Month to date snowfall 0.0 0.0  
Since 1 July snowfall 0.0 0.0  
Since 1 September snowfall 0.0 0.0  
Snow Depth 0.00 in    
Sea Level Pressure  
Sea Level Pressure 29.83 in    
Wind  
Wind Speed 8 mph (SE)    
Max Wind Speed 13 mph    
Max Gust Speed 16 mph    
Visibility 2 miles    
Events Fog , Rain    
T = Trace of Precipitation, MM = Missing Value Source: NWS Daily Summary

Daily Weather History Graph

Daily Weather History Graph

Search for Another Location

Airport or City:

Trip Planner

Search our weather history database for the weather conditions in past years. The results will help you decide how hot, cold, wet, or windy it might be!

Date:

Astronomy

Sep. 18, 2013 Rise Set
Actual Time 6:50 AM CDT 7:13 PM CDT
Civil Twilight 6:20 AM CDT 7:44 PM CDT
Nautical Twilight 5:44 AM CDT 8:20 PM CDT
Astronomical Twilight 5:07 AM CDT 8:57 PM CDT
Moon 6:36 PM CDT (9/18) 5:52 AM CDT (9/18)
Length of Visible Light 13h 23m
Length of Day
12h 23m
Waxing Gibbous, 99% of the Moon is Illuminated
Sep 18
Waxing Gibbous
Sep 19
Full
Sep 26
Last Quarter
Oct 4
New
Oct 11
First Quarter

Hourly Weather History & Observations

Time (CDT) Temp. Dew Point Humidity Pressure Visibility Wind Dir Wind Speed Gust Speed Precip Events Conditions
12:43 AM 57.2 °F 51.8 °F 82% 29.95 in 10.0 mi South 11.5 mph - N/A   Overcast
12:55 AM 57.9 °F 52.0 °F 81% 29.96 in 10.0 mi South 11.5 mph - N/A   Overcast
1:55 AM 57.9 °F 53.1 °F 84% 29.94 in 10.0 mi South 8.1 mph - N/A   Overcast
2:55 AM 57.9 °F 54.0 °F 87% 29.91 in 10.0 mi SSE 5.8 mph - 0.00 in   Light Drizzle
3:55 AM 57.9 °F 54.0 °F 87% 29.90 in 3.0 mi SSE 6.9 mph - 0.00 in   Light Drizzle
4:05 AM 57.2 °F 53.6 °F 88% 29.90 in 3.0 mi SSE 6.9 mph - 0.00 in   Light Drizzle
4:16 AM 57.2 °F 53.6 °F 88% 29.90 in 2.0 mi SSE 8.1 mph - 0.00 in   Light Drizzle
4:32 AM 57.2 °F 55.4 °F 94% 29.89 in 1.5 mi SSE 8.1 mph - 0.00 in   Light Drizzle
4:55 AM 57.9 °F 55.0 °F 90% 29.89 in 1.2 mi SSE 5.8 mph - 0.00 in   Light Drizzle
5:55 AM 57.9 °F 55.0 °F 90% 29.88 in 1.8 mi SSE 6.9 mph - 0.00 in   Light Drizzle
6:02 AM 57.2 °F 55.4 °F 94% 29.88 in 2.5 mi SSE 5.8 mph - 0.00 in   Overcast
6:14 AM 57.2 °F 55.4 °F 94% 29.87 in 3.0 mi SSE 4.6 mph - 0.00 in   Overcast
6:55 AM 59.0 °F 55.0 °F 87% 29.88 in 3.0 mi SE 5.8 mph - 0.00 in   Overcast
7:12 AM 59.0 °F 55.4 °F 88% 29.87 in 1.5 mi SE 4.6 mph - 0.00 in   Light Drizzle
7:39 AM 59.0 °F 55.4 °F 88% 29.87 in 0.8 mi SE 5.8 mph - 0.00 in   Light Drizzle
7:55 AM 59.0 °F 55.9 °F 90% 29.88 in 0.5 mi SE 5.8 mph - 0.00 in Fog Light Drizzle
8:55 AM 59.0 °F 57.0 °F 93% 29.87 in 0.5 mi SE 5.8 mph - 0.00 in Fog Light Drizzle
9:55 AM 60.1 °F 57.0 °F 90% 29.88 in 0.5 mi SE 6.9 mph - 0.00 in Fog Light Drizzle
10:55 AM 60.1 °F 57.0 °F 90% 29.87 in 0.8 mi ESE 8.1 mph - 0.01 in   Drizzle
11:55 AM 61.0 °F 59.0 °F 93% 29.84 in 0.8 mi SE 6.9 mph - 0.00 in   Light Drizzle
12:55 PM 63.0 °F 60.1 °F 90% 29.82 in 0.8 mi SE 8.1 mph - 0.00 in   Light Drizzle
1:55 PM 63.0 °F 60.1 °F 90% 29.81 in 0.2 mi SE 9.2 mph - 0.00 in Fog Light Drizzle
2:22 PM 62.6 °F 59.0 °F 88% 29.79 in 0.1 mi ESE 11.5 mph - 0.00 in Fog Light Drizzle
2:39 PM 60.8 °F 59.0 °F 94% 29.79 in 0.1 mi ESE 10.4 mph - 0.00 in Fog Light Drizzle
2:55 PM 61.0 °F 57.9 °F 90% 29.80 in 0.1 mi ESE 10.4 mph - 0.00 in Fog Fog
3:48 PM 60.8 °F 57.2 °F 88% 29.79 in 0.1 mi ESE 9.2 mph - N/A Fog Fog
3:55 PM 61.0 °F 57.9 °F 90% 29.80 in 0.1 mi ESE 8.1 mph - N/A Fog Fog
4:22 PM 60.8 °F 59.0 °F 94% 29.79 in 0.5 mi ESE 9.2 mph - 0.00 in Fog Light Drizzle
4:55 PM 62.1 °F 59.0 °F 90% 29.79 in 0.5 mi East 9.2 mph - 0.01 in Fog Light Drizzle
5:55 PM 63.0 °F 60.1 °F 90% 29.78 in 0.5 mi ESE 8.1 mph - 0.00 in Fog Light Drizzle
6:04 PM 62.6 °F 60.8 °F 94% 29.77 in 0.2 mi ESE 8.1 mph - 0.00 in Fog Light Drizzle
6:32 PM 62.6 °F 60.8 °F 94% 29.76 in 0.1 mi ESE 8.1 mph - 0.00 in Fog Light Drizzle
6:53 PM 62.6 °F 60.8 °F 94% 29.76 in 0.1 mi ESE 10.4 mph - 0.00 in Fog Light Drizzle
6:55 PM 63.0 °F 60.1 °F 90% 29.77 in 0.1 mi ESE 9.2 mph - 0.00 in Fog Light Drizzle
7:15 PM 62.6 °F 60.8 °F 94% 29.76 in 0.2 mi ESE 9.2 mph - 0.01 in Fog Light Drizzle
7:25 PM 62.6 °F 60.8 °F 94% 29.77 in 0.1 mi ESE 8.1 mph - 0.01 in Fog Light Drizzle
7:55 PM 63.0 °F 61.0 °F 93% 29.78 in 0.1 mi ESE 9.2 mph - 0.01 in Fog Light Drizzle
8:37 PM 62.6 °F 60.8 °F 94% 29.77 in 0.2 mi ESE 8.1 mph - 0.00 in Fog Light Drizzle
8:44 PM 62.6 °F 60.8 °F 94% 29.77 in 0.2 mi ESE 8.1 mph - 0.01 in Fog Light Drizzle
8:55 PM 64.0 °F 61.0 °F 90% 29.78 in 0.2 mi ESE 9.2 mph - 0.01 in Fog Light Drizzle
9:29 PM 62.6 °F 60.8 °F 94% 29.78 in 0.2 mi ESE 9.2 mph - 0.00 in Fog Light Drizzle
9:55 PM 63.0 °F 61.0 °F 93% 29.78 in 0.1 mi ESE 10.4 mph - 0.00 in Fog Light Drizzle
10:15 PM 64.4 °F 60.8 °F 88% 29.79 in 0.2 mi ESE 9.2 mph - 0.01 in Fog Light Drizzle
10:55 PM 64.0 °F 61.0 °F 90% 29.78 in 0.2 mi East 8.1 mph - 0.01 in Fog Light Drizzle
11:06 PM 64.4 °F 60.8 °F 88% 29.77 in 0.2 mi East 8.1 mph - 0.00 in Fog Light Drizzle
11:55 PM 64.0 °F 62.1 °F 93% 29.76 in 0.2 mi ESE 8.1 mph - 0.00 in Fog Light Drizzle